Theta_e
297 293 289 290 292 292 291 288 286 287 291 293 292 292 295 299 300 300 300 301 302 304 306 311 313 315 317 319 321 321 321 319 310 309 308 306 304 306 310 305 304 305 303 301
294 290 294 298 296 294 292 289 288 290 293 293 292 291 294 298 299 299 300 301 302 304 306 308 310 312 315 316 316 314 313 312 308 309 308 308 308 308 305 302 300 300 299 299
291 293 298 296 294 294 292 290 288 289 292 292 292 290 292 297 300 301 301 301 303 305 306 307 309 308 306 304 304 305 306 306 307 308 306 304 304 303 299 297 296 297 299 299
295 297 296 294 293 293 289 294 293 291 288 285 289 283 289 293 296 298 300 299 301 303 305 304 302 302 301 301 302 302 304 304 305 304 303 302 301 300 298 296 296 296 298 298
292 293 293 293 292 295 293 296 293 291 288 286 287 285 286 294 293 296 298 300 300 302 301 301 301 301 300 301 300 301 304 304 303 303 303 301 298 297 296 295 296 298 299 299
294 296 295 293 297 296 296 295 293 291 288 281 286 285 284 289 293 296 298 300 301 300 300 303 303 303 301 302 303 302 304 303 303 301 301 300 297 296 295 295 298 298 296 296
293 293 296 297 294 295 294 290 282 281 280 280 289 286 287 293 296 298 299 299 299 300 300 301 302 303 303 302 300 301 301 300 301 300 299 299 298 297 296 296 295 294 294 293
286 285 292 296 293 291 290 290 282 280 278 281 288 284 288 294 298 300 299 299 299 299 301 301 302 301 300 299 298 299 299 300 300 299 298 298 297 296 296 296 295 294 293 292
287 287 294 294 295 295 291 286 291 284 282 279 283 288 293 295 296 297 297 297 296 297 299 299 298 298 298 298 298 298 298 298 299 298 297 296 296 296 295 295 293 292 292 293
292 286 292 294 296 296 292 294 285 283 277 277 281 283 285 291 294 296 295 295 296 296 296 297 298 298 298 297 297 296 296 296 297 297 295 295 294 294 293 293 292 292 291 291
292 289 288 292 290 289 290 288 287 286 282 277 274 281 290 294 296 295 294 295 295 295 295 296 297 297 296 295 295 294 294 293 294 295 294 293 292 292 292 291 291 291 292 292
292 288 283 287 292 294 291 289 287 279 280 279 278 280 291 293 295 295 294 296 295 295 295 295 295 296 295 294 293 293 291 293 292 293 291 290 291 292 291 290 290 290 290 290
293 287 281 285 289 290 289 290 288 285 283 281 275 279 293 293 293 294 294 294 294 294 294 294 294 294 294 294 293 291 292 292 292 290 289 290 291 291 290 290 290 290 289 288
296 288 284 281 283 286 284 288 288 286 279 280 280 283 288 291 292 292 293 293 292 292 293 292 292 292 292 292 292 290 290 290 290 288 289 290 289 289 289 289 289 289 289 289
292 286 286 286 287 287 285 286 287 286 285 282 283 283 287 291 292 292 293 292 292 292 292 292 292 292 293 292 289 289 289 288 288 288 289 289 290 290 290 289 289 289 289 290
292 284 284 284 287 287 285 286 286 286 286 286 285 285 290 292 292 292 292 292 291 292 292 292 293 293 292 289 287 287 287 287 287 286 289 290 290 289 289 288 288 288 288 289
287 284 280 277 282 281 278 284 286 286 287 287 283 287 291 290 292 291 291 292 292 292 291 292 293 292 288 286 286 285 286 286 286 286 289 289 289 288 287 287 287 287 288 289
285 282 277 275 276 271 284 288 289 288 288 289 289 290 291 291 291 293 293 292 292 291 292 293 292 288 286 285 285 285 285 285 285 287 288 288 287 287 287 286 286 285 283 283
289 281 277 274 275 280 284 288 288 287 287 292 290 290 291 291 291 290 293 293 292 293 292 290 287 286 286 285 285 284 284 284 287 287 287 287 286 285 285 284 285 284 284 282
287 283 279 274 271 270 282 288 292 291 282 291 292 290 290 290 284 291 292 292 292 291 289 287 286 285 284 284 284 284 284 284 285 286 286 286 285 284 283 283 283 283 281 282
279 278 275 269 270 278 286 292 293 282 283 291 293 292 290 289 292 292 292 292 292 288 286 286 285 284 284 284 285 284 284 284 285 286 286 285 284 283 283 281 281 280 280 280
282 280 275 276 270 276 290 292 286 290 289 293 293 292 293 292 292 292 292 288 287 286 286 286 285 284 284 285 284 283 283 285 285 285 284 283 283 283 283 280 280 280 278 278
282 285 281 283 283 289 291 292 293 292 292 293 293 294 295 292 293 293 288 287 286 285 284 284 284 285 285 285 284 283 284 285 284 283 283 283 284 283 282 279 278 278 277 273
288 290 283 286 289 290 291 293 294 294 294 295 295 295 296 294 294 288 288 286 284 283 284 284 284 283 283 284 285 284 284 284 283 283 283 283 283 282 282 280 280 278 273 274
288 290 287 285 290 290 293 294 294 295 296 296 297 296 295 294 291 289 285 284 284 284 284 284 283 283 283 284 284 283 283 283 282 283 283 282 283 282 281 279 278 279 278 277
291 289 285 284 291 291 292 294 296 296 296 296 296 294 290 291 287 287 285 284 284 284 283 283 284 284 283 284 282 283 283 282 282 282 282 284 283 281 280 279 279 282 281 282
Wind_Speed
5 9 3 3 4 5 5 3 2 2 2 10 5 6 8 8 9 7 6 7 7 7 4 5 6 8 11 9 11 7 8 4 5 2 4 3 2 3 2 3 5 5 7 5
7 4 3 3 3 6 6 6 3 2 7 9 7 10 8 9 4 4 6 7 7 6 6 6 7 6 7 6 5 6 7 7 5 3 3 3 3 2 4 4 5 6 6 5
7 2 2 4 4 8 5 6 1 4 3 6 5 6 6 6 6 6 6 4 4 8 9 6 7 5 6 7 7 7 7 8 5 3 3 3 3 4 3 3 3 3 4 5
5 3 4 5 6 4 3 1 3 5 4 3 3 3 3 2 3 4 3 3 5 6 5 4 4 6 6 5 7 7 6 5 4 4 3 3 2 2 1 2 1 1 1 3
2 3 5 7 1 3 2 5 5 4 5 5 4 6 3 6 3 4 5 5 3 4 5 7 5 6 5 5 4 4 5 5 5 5 5 4 5 3 2 2 3 1 1 1
2 2 4 1 4 4 3 6 9 6 4 3 0 4 4 7 8 6 4 5 4 1 2 2 8 6 5 2 6 4 6 6 6 6 6 7 7 5 3 2 3 3 3 3
7 4 5 3 4 4 6 6 4 4 4 5 3 3 7 8 7 10 10 7 6 5 4 5 8 7 3 4 4 5 6 6 5 6 6 5 5 5 4 4 4 4 3 3
4 4 4 5 2 4 3 5 6 5 3 4 3 4 5 4 8 9 5 7 6 7 6 5 6 3 7 6 6 6 7 4 3 3 2 3 5 3 3 4 4 4 3 2
5 1 3 2 2 3 2 4 3 8 2 3 3 4 4 5 6 8 8 7 7 6 5 6 6 5 6 7 5 6 4 2 1 3 2 3 3 3 5 7 5 3 3 2
5 5 3 3 2 6 3 5 3 4 2 3 3 4 6 5 8 8 8 8 7 6 7 6 6 6 4 5 5 5 3 1 2 3 0 1 3 4 5 5 6 4 4 4
3 5 5 2 4 2 2 2 7 5 4 5 1 7 6 13 13 14 9 8 10 10 8 6 6 4 4 4 5 4 4 4 4 4 3 4 4 5 6 5 4 4 5 6
1 6 3 2 2 2 2 3 5 6 3 1 4 8 3 7 8 8 9 10 6 5 7 6 4 3 3 2 4 5 3 3 3 3 3 3 4 6 5 5 6 6 8 6
4 2 3 7 7 4 2 3 4 6 3 5 6 8 1 3 7 6 11 8 7 6 5 3 2 2 1 3 3 2 2 3 2 2 2 3 2 2 3 4 6 7 6 4
6 3 6 8 5 3 4 4 4 5 4 4 7 5 4 4 7 6 8 8 8 7 7 4 3 3 1 3 4 4 3 1 1 1 2 2 1 3 4 6 7 6 5 5
4 4 3 2 3 2 2 5 6 7 5 7 5 7 7 9 10 8 8 8 7 7 6 5 4 3 2 3 3 3 1 3 3 4 3 3 3 4 6 6 7 6 5 5
3 2 2 1 4 5 4 6 7 5 4 7 4 10 7 2 7 8 10 9 7 6 6 6 5 4 4 6 5 3 3 4 3 4 3 3 3 5 6 6 7 6 5 4
3 6 4 4 4 5 7 10 11 6 5 7 7 10 6 4 7 10 9 9 8 7 7 7 5 5 5 5 4 2 4 3 4 4 3 3 4 6 6 6 6 6 6 3
5 5 3 3 4 2 7 2 3 7 5 8 2 4 7 4 2 5 6 8 8 7 7 6 5 4 4 3 1 4 4 4 3 2 3 4 5 6 6 6 5 5 3 2
4 5 5 5 4 7 5 5 8 9 9 10 8 4 4 4 4 4 7 6 7 7 6 4 4 4 3 2 3 4 4 2 2 4 5 6 5 5 5 6 6 5 3 1
5 7 6 3 4 7 8 3 3 4 7 7 8 8 8 6 3 8 10 8 8 7 5 6 5 4 1 3 3 2 3 3 5 5 6 5 4 5 6 6 6 3 1 3
3 4 5 3 3 10 8 3 2 6 10 5 9 8 9 7 8 4 7 6 6 5 7 6 5 3 2 2 1 4 4 5 6 6 6 5 4 5 5 6 3 2 3 4
8 7 4 4 2 9 6 4 8 9 2 6 8 8 13 6 6 5 6 7 8 9 6 5 4 2 1 3 2 5 5 4 5 6 6 5 4 3 4 4 2 0 3 3
3 8 6 10 9 4 7 5 4 2 3 5 7 8 11 8 6 8 7 8 6 7 6 4 3 1 2 4 2 4 4 6 6 6 6 4 3 4 4 4 3 2 2 1
4 4 3 2 5 8 10 8 6 5 7 3 4 6 10 11 9 7 8 8 6 5 4 2 2 1 3 5 4 3 5 6 6 6 6 4 3 4 4 3 3 3 2 2
5 5 4 5 10 6 9 8 9 5 4 5 4 6 8 9 8 8 6 5 6 5 3 1 1 2 5 4 4 5 5 6 5 5 5 4 3 4 4 4 4 3 3 4
6 8 6 8 10 5 7 4 2 6 8 6 7 6 6 9 10 10 7 5 4 4 2 1 1 3 5 4 5 5 5 5 5 5 4 4 5 3 3 3 4 7 8 8
Wind_Direction
12 71 120 223 220 147 133 130 121 286 55 81 65 51 3 26 62 76 77 85 82 71 56 62 69 91 93 88 90 58 91 142 162 148 112 82 108 85 46 78 73 65 71 70
37 88 229 105 80 103 83 94 85 51 16 86 78 46 27 30 50 74 102 97 104 105 89 89 89 83 83 94 116 147 170 154 152 152 162 143 172 109 92 74 57 62 71 69
122 137 128 115 55 85 47 108 70 136 88 72 105 39 29 23 60 75 46 85 92 127 124 104 100 101 112 135 135 132 138 143 162 125 104 74 71 64 66 47 48 30 80 96
74 360 113 69 74 94 92 69 113 109 87 155 36 223 89 55 59 42 86 111 143 110 86 87 108 122 108 71 69 81 90 99 95 66 60 76 88 127 53 117 105 81 100 59
246 66 66 61 71 78 111 74 66 88 85 92 9 86 273 127 194 208 213 216 201 154 142 139 120 86 77 65 88 101 106 85 71 72 93 107 92 103 141 143 168 95 128 284
50 38 60 87 53 57 111 53 36 50 72 48 293 127 239 193 189 178 211 215 196 194 33 44 88 88 74 66 79 81 78 64 61 71 72 101 122 143 139 216 229 226 224 243
10 349 331 48 77 44 71 63 9 360 9 218 318 108 240 213 179 177 185 191 149 128 142 138 129 126 100 129 108 92 84 75 83 94 101 126 151 175 210 231 234 245 240 228
125 342 8 344 79 155 76 139 152 209 194 247 346 240 251 251 187 159 138 142 143 152 169 155 138 135 134 119 107 101 85 89 82 86 146 192 202 217 244 267 288 275 282 260
135 7 314 49 59 109 174 54 157 108 26 58 254 292 326 50 111 127 147 151 176 177 147 146 141 151 128 114 109 95 93 65 301 232 251 339 345 317 287 286 272 277 291 257
188 104 31 341 73 41 108 146 57 8 133 260 296 272 232 197 183 166 172 176 160 145 153 161 157 155 134 134 127 96 87 99 263 246 49 265 327 330 310 304 313 299 276 251
118 97 286 23 28 159 23 52 54 105 111 157 282 262 222 192 190 184 179 168 172 168 163 157 145 135 108 90 85 92 67 35 18 31 29 29 352 340 349 352 327 275 267 255
29 121 117 188 279 247 173 134 125 112 204 88 145 274 329 237 198 159 175 174 169 157 147 142 132 129 113 190 90 66 48 62 67 73 57 23 8 4 353 322 297 280 261 268
180 29 64 354 354 345 171 108 100 104 83 196 129 262 357 95 131 164 163 150 143 141 125 134 146 171 162 41 79 92 92 104 96 82 28 13 1 336 318 311 309 297 305 303
91 99 151 184 199 173 171 157 150 131 122 182 226 267 237 194 175 155 138 146 155 157 165 179 194 200 144 178 165 153 173 170 211 265 238 220 283 323 324 318 308 305 292 272
92 125 108 62 11 353 233 186 181 192 183 165 241 213 244 215 204 190 162 154 158 174 187 190 191 184 190 172 179 189 202 253 247 262 261 298 317 324 326 312 304 307 309 291
18 168 131 182 359 10 284 251 218 223 204 257 256 278 208 216 126 158 171 163 174 187 196 196 176 182 194 190 191 198 254 280 281 295 281 284 316 328 309 307 317 316 319 315
76 127 99 261 5 347 328 222 200 199 192 164 194 230 163 187 195 178 170 177 186 190 195 193 197 198 185 186 188 256 281 293 293 259 264 296 319 304 302 311 312 318 307 329
122 96 74 187 27 349 241 267 224 208 220 207 219 211 194 199 124 154 177 178 193 197 197 203 192 171 169 192 249 285 297 306 291 256 292 310 303 300 302 303 304 306 302 326
66 114 93 135 197 297 290 201 184 172 260 196 203 165 143 100 74 279 203 191 192 193 193 189 164 156 165 219 284 293 303 296 270 291 293 288 292 293 307 309 299 291 271 224
59 65 109 101 144 221 240 264 161 110 293 198 162 171 158 130 155 242 181 181 192 178 160 151 135 122 134 288 284 255 278 289 284 277 267 280 293 311 309 296 296 271 245 152
32 12 157 128 230 286 242 210 175 103 244 165 175 170 150 189 202 192 160 145 152 143 133 116 121 141 250 298 307 264 279 267 273 278 285 291 310 314 301 311 300 268 148 131
169 152 202 106 61 280 166 59 161 218 251 190 183 184 192 192 144 124 111 123 133 127 127 130 126 119 50 343 286 263 264 276 300 298 287 283 301 308 309 305 313 89 148 154
235 188 182 182 214 230 232 218 253 182 214 223 191 195 196 150 156 151 139 135 128 138 134 115 124 66 339 336 315 288 280 311 304 309 293 268 289 296 290 284 242 220 195 166
248 158 206 80 261 232 231 261 231 216 226 219 226 171 172 166 153 140 134 132 137 117 131 122 87 320 303 320 325 280 298 299 295 292 293 263 253 281 277 271 227 205 197 217
202 144 190 263 281 278 263 233 243 228 206 209 195 175 160 132 119 109 94 120 130 147 136 92 274 286 296 297 293 308 308 315 296 291 284 268 246 257 269 241 212 212 225 200
189 194 166 228 237 201 248 284 205 201 218 195 149 104 78 109 113 120 138 153 139 141 157 260 306 296 290 293 303 307 307 319 289 284 280 282 267 228 241 237 253 246 233 252